Regional Weather Roundup
Issued by NWS

Home | Current Version | Previous Version | Text Only | Print | Product List | Glossary On
Versions: 1 2 3 4 5 6 7 8 9 10 11 12 13 14 15 16 17 18 19 20 21 22 23 24 25 26 27 28 29 30 31 32 33 34 35 36 37 38 39 40 41 42 43 44 45 46 47 48 49 50
000
ASUS43 KOAX 051402
RWRNE

WEATHER ROUNDUP FOR NEBRASKA
NATIONAL WEATHER SERVICE OMAHA NE
900 AM CDT TUE MAY 05 2015

NOTES: SATELLITE DATA IS BEING USED TO AUGMENT CLOUD COVER ABOVE
       12000 FEET.
       "FAIR" INDICATES FEW OR NO CLOUDS BELOW 12,000 FEET WITH NO
       SIGNIFICANT WEATHER AND/OR OBSTRUCTIONS TO VISIBILITY.

  * THESE STATIONS DO NOT REPORT WEATHER SUCH AS RAIN...SNOW OR FOG.

NEZ001>004-019>022-054>056-051500-
NEBRASKA PANHANDLE

CITY           SKY/WX    TMP DP  RH WIND       PRES   REMARKS
SCOTTSBLUFF    CLOUDY    49  46  90 S12G23    30.01S FOG
ALLIANCE       CLOUDY    49  46  90 S9        30.02R
CHADRON        CLOUDY    51  45  79 E8        30.00S
SIDNEY         CLOUDY    47  45  93 SE5       30.02F
$$

NEZ057>060-069>072-079>082-051500-
SOUTHWEST NEBRASKA

CITY           SKY/WX    TMP DP  RH WIND       PRES   REMARKS
NORTH PLATTE   CLOUDY    52  52 100 E7        30.04S FOG
IMPERIAL       CLOUDY    51  50  96 NE8       30.01F FOG
MCCOOK         FOG       56  55  97 E8        30.01S VSB 3/4
$$

NEZ005>010-023>029-035>040-094-051500-
NORTH CENTRAL NEBRASKA

CITY           SKY/WX    TMP DP  RH WIND       PRES   REMARKS
VALENTINE      CLOUDY    53  48  83 E7        30.05S
BROKEN BOW     FOG       55  54  96 SE10      30.05R VSB 1/2
ORD            LGT RAIN  55  54  96 SE8       30.06R VSB 1
$$

NEZ041-046>049-061>064-073>077-083>087-051500-
SOUTH CENTRAL NEBRASKA

CITY           SKY/WX    TMP DP  RH WIND       PRES   REMARKS
GRAND ISLAND   FOG       58  57  97 E6        30.07S VSB 1
HASTINGS       CLOUDY    61  59  93 NE5       30.05S FOG
KEARNEY *      CLOUDY    57  55  94 E5        30.05S
$$

NEZ011>018-030>034-042>045-051500-
NORTHEAST NEBRASKA

CITY           SKY/WX    TMP DP  RH WIND       PRES   REMARKS
NORFOLK        FOG       55  55 100 SE9       30.07R VSB 1/2
COLUMBUS *     CLOUDY    57  54  88 E7        30.09S VSB 1
TEKAMAH        CLOUDY    60  58  92 S5        30.08R FOG
$$

NEZ050>053-065>068-078-088>093-051500-
SOUTHEAST NEBRASKA

CITY           SKY/WX    TMP DP  RH WIND       PRES   REMARKS
LINCOLN        CLOUDY    62  59  90 SE6       30.08S
OMAHA EPPLEY   CLOUDY    63  60  90 S9        30.09R
FALLS CITY     CLOUDY    62  59  90 SE8       30.09R
$$

NEZ044-045-051>053-067-051500-
OMAHA AREA

CITY           SKY/WX    TMP DP  RH WIND       PRES   REMARKS
OMAHA EPPLEY   CLOUDY    63  60  90 S9        30.09R
$$


USA.gov is the U.S. government's official web portal to all federal, state and local government web resources and services.